Location: Almena Post Office
(39.8928°N, 99.7066°W)
Time: 14:22:24
(UTC+00:00)

Cosmos 841 Rocket - Pass Details

Date: 27 February 2020
Orbit: 746 x 773 km, 74.0° (Epoch: 29 March)

Event Time Altitude Azimuth Distance (km) Brightness Sun altitude
Rises 12:44:42 0° 336° (NNW) 3,239 6.4 -6.7°
Reaches altitude 10° 12:47:07 10° 332° (NNW) 2,312 5.7 -6.3°
Maximum altitude 12:52:14 55° 256° (WSW) 925 3.6 -5.3°
Drops below altitude 10° 12:57:20 10° 179° (S) 2,308 6.1 -4.3°
Sets 12:59:44 0° 175° (S) 3,231 6.9 -3.8°
